Regional Weather Roundup
Issued by NWS

Home | Current Version | Previous Version | Graphics & Text | Print | Product List | Glossary On
Versions: 1 2 3 4 5 6 7 8 9 10 11 12 13 14 15 16 17 18 19 20 21 22 23 24 25 26 27 28 29 30 31 32 33 34 35 36 37 38 39 40 41 42 43 44 45 46 47 48 49 50
000
ASUS43 KMKX 020000
RWRWI

WISCONSIN REGIONAL WEATHER ROUNDUP
NATIONAL WEATHER SERVICE MILWAUKEE/SULLIVAN WI
700 PM CDT SUN MAY 01 2016

NOTE: "FAIR" INDICATES FEW OR NO CLOUDS BELOW 12,000 FEET WITH NO
SIGNIFICANT WEATHER AND/OR OBSTRUCTIONS TO VISIBILITY.

WIZ001-002-006>008-014>016-023>028-020100-
NORTHWEST WISCONSIN

CITY           SKY/WX    TMP DP  RH WIND       PRES   REMARKS
SUPERIOR ARPT  SUNNY     45  35  68 NE6       30.18F
ASHLAND        SUNNY     48  36  63 NE13      30.18S
6HR MIN TEMP:  48; 6HR MAX TEMP:  54;

HAYWARD        SUNNY     54  33  45 NE16      30.13R
6HR MIN TEMP:  52; 6HR MAX TEMP:  59;

SIREN          SUNNY     60  30  32 NE12G17   30.11S
CUMBERLAND     SUNNY     57  32  38 N5        30.09S
RICE LAKE      CLOUDY    62  32  32 N14       30.09S
CHETEK         MOSUNNY   59  35  39 NE5       30.07S
LADYSMITH      PTSUNNY   60  35  38 NE12      30.08S
6HR MIN TEMP:  58; 6HR MAX TEMP:  64;

EAU CLAIRE     NOT AVBL
MENOMONIE      PTSUNNY   64  29  26 CALM      30.06S
NEW RICHMOND   SUNNY     60  31  33 N8        30.09S
OSCEOLA        SUNNY     61  31  32 N6        30.12S
$$

WIZ003>005-009-010-017-018-020100-
NORTH CENTRAL WISCONSIN

CITY           SKY/WX    TMP DP  RH WIND       PRES   REMARKS
MANITOWISH WTR MOSUNNY   55  34  45 N8        30.10S
ARBOR VITAE    CLOUDY    57  34  41 N9        30.09S
WOODRUFF       CLOUDY    57  34  41 N9        30.09S
RHINELANDER    CLOUDY    57  28  33 E6        30.08S
6HR MIN TEMP:  57; 6HR MAX TEMP:  62;

EAGLE RIVER    MOSUNNY   56  27  32 N8        30.08S
LAND O LAKES   CLOUDY    56  30  36 NE8       30.10S
PHILLIPS       CLOUDY    57  34  41 NE9       30.08S
6HR MIN TEMP:  57; 6HR MAX TEMP:  62;

TOMAHAWK       CLOUDY    58  28  32 NE7       30.07S
MEDFORD        CLOUDY    58  32  38 E6        30.05S
MERRILL        CLOUDY    58  32  38 SE5       30.07S
$$

WIZ029-030-035-036-043>047-020100-
CENTRAL WISCONSIN

CITY           SKY/WX    TMP DP  RH WIND       PRES   REMARKS
WAUSAU         CLOUDY    59  31  34 E6        30.05R
6HR MIN TEMP:  59; 6HR MAX TEMP:  66;

MOSINEE        NOT AVBL
MARSHFIELD     CLOUDY    58  34  40 SE7       30.06R
6HR MIN TEMP:  57; 6HR MAX TEMP:  62;

STEVENS POINT  PTCLDY    55  34  45 E12G18    30.07S
WAUPACA        CLOUDY    57  35  44 NE7G16    30.08S
WAUTOMA        MOCLDY    55  35  47 NE13      30.07R
6HR MIN TEMP:  54; 6HR MAX TEMP:  59;

WISC RAPIDS    MOSUNNY   56  33  42 SE9       30.08R
6HR MIN TEMP:  55; 6HR MAX TEMP:  61;

CAMP DOUGLAS   NOT AVBL
$$

WIZ011>013-019>022-031-037>040-048>050-020100-
NORTHEAST WISCONSIN

CITY           SKY/WX    TMP DP  RH WIND       PRES   REMARKS
ANTIGO         MOCLDY    55  34  45 E3        30.07F
SHAWANO        CLEAR     58  33  38 E13G18    30.09S
OCONTO         CLEAR     53  38  56 E7        30.10R
STURGEON BAY   CLEAR     52  36  54 E7        30.13R
6HR MIN TEMP:  52; 6HR MAX TEMP:  54;

GREEN BAY      PTCLDY    53  40  61 E13       30.09S
6HR MIN TEMP:  53; 6HR MAX TEMP:  57; 6HR PCP: TRACE;

MANITOWOC      NOT AVBL
APPLETON       PTCLDY    54  36  50 E17       30.06F
CLINTONVILLE   PTCLDY    55  32  41 E9        30.08S
OSHKOSH        CLOUDY    51  40  65 E10       30.06S
6HR MIN TEMP:  51; 6HR MAX TEMP:  58;

$$

WIZ032>034-041-042-053>061-020100-
SOUTHWEST WISCONSIN

CITY           SKY/WX    TMP DP  RH WIND       PRES   REMARKS
LA CROSSE      CLOUDY    58  35  42 E5        30.06S
6HR MIN TEMP:  55; 6HR MAX TEMP:  59;

SPARTA         CLOUDY    58  33  40 E7        30.07R
VIROQUA        CLOUDY    53  42  67 CALM      30.06S
BOSCOBEL       LGT RAIN  51  45  79 N8        30.07R
6HR MIN TEMP:  50; 6HR MAX TEMP:  54; 6HR PCP:  0.04;

PRAIRIE DU CHI LGT RAIN  49  46  90 NW5       30.07R
PLATTEVILLE    CLOUDY    50  46  87 NW7       30.03R
$$

WIZ056-057-062-063-064-067-068-020100-
SOUTH CENTRAL WISCONSIN

CITY           SKY/WX    TMP DP  RH WIND       PRES   REMARKS
REEDSBURG      CLOUDY    53  41  64 E5        30.04S
BARABOO/DELLS  CLOUDY    53  37  53 NE10G16   30.04F
LONE ROCK      NOT AVBL
MINERAL POINT  LGT RAIN  52  46  82 N7        30.03R
MADISON        CLOUDY    53  40  61 NE18      30.02R
6HR MIN TEMP:  51; 6HR MAX TEMP:  58;

MIDDLETON      CLOUDY    54  42  63 NE10      30.03R
WATERTOWN      CLOUDY    50  42  73 NE13G22   30.02S
MONROE         CLOUDY    52  43  71 NE10      30.00R
JANESVILLE     DRIZZLE   52  43  71 NE8       30.00R
$$

WIZ051-052-058>065-066-070>072-020100-
SOUTHEAST WISCONSIN

CITY           SKY/WX    TMP DP  RH WIND       PRES   REMARKS
MILWAUKEE      DRIZZLE   43  42  97 NE12G18   30.02F FOG
6HR MIN TEMP:  43; 6HR MAX TEMP:  47; 6HR PCP: TRACE;

WAUKESHA       MOCLDY    46  41  81 E17       30.03F
MILWAUKEE/TIMM CLOUDY    46  41  81 NE13G18   30.03F
RACINE         CLOUDY    44  41  89 N13       30.02F FOG
6HR MIN TEMP:  43; 6HR MAX TEMP:  47; 6HR PCP: TRACE;

BURLINGTON     CLOUDY    47  41  80 NE10      30.01S
KENOSHA        LGT RAIN  46  43  89 NE12      30.01R
6HR MIN TEMP:  46; 6HR MAX TEMP:  49; 6HR PCP: TRACE;

FOND DU LAC    CLOUDY    52  40  63 NE16      30.06S
6HR MIN TEMP:  52; 6HR MAX TEMP:  60;

SHEBOYGAN      CLOUDY    46  39  76 NE14      30.06F
6HR MIN TEMP:  46; 6HR MAX TEMP:  55;

WEST BEND      CLOUDY    46  41  81 NE12      30.04F
JUNEAU         CLOUDY    50  41  69 NE15      30.04F
$$

LSZ147-162-020100-
LAKE SUPERIOR

STATION/POSITION TIME  TEMP    WIND        PRES    WAVE
                       AIR SEA DIR/SP/G            HT/PER
                 (UTC) (F)     (DEG/KT/KT) (MB)    (FT/S)
W MID LAKE BUOY  2250   40 37   70/  6/  8 1022.5F   2/ 5
DEVILS ISLAND    2300   38      10/  5/  6 1023.1S
SAXON HARBOR     2300   40     340/  5/  6 1021.7S
$$

LMZ867-665-643>646-020100-
LAKE MICHIGAN

STATION/POSITION TIME  TEMP    WIND        PRES    WAVE
                       AIR SEA DIR/SP/G            HT/PER
                 (UTC) (F)     (DEG/KT/KT) (MB)    (FT/S)
CHAMBERS ISLAND  2300   51      40/  8/  9 1019.3
N MID LAKE BUOY  2250   42 39  330/  6/ 10 1019.2F   0
NORTHPORT PIER   2300   52      CALM  /  7 1019.0F
KEWAUNEE LAKESHO 2300   46                 1018.4R
SHEBOYGAN LAKESH 2300   42      20/ 16/ 17 1018.9S
PORT WASHINGTON  2300   47      20/ 10/ 14 1018.6S
S MID LAKE BUOY  2250   41 40   20/ 10/ 12 1015.9F   2/ 5
KENOSHA   LAKESH 2300   44      10/ 19/ 22 1015.9F
$$

TC  - TEMPERATURE IN CELSIUS
VSB - VISIBILITY IN STATUTE MILES
WCI - WIND CHILL INDEX
HX  - HEAT INDEX





USA.gov is the U.S. government's official web portal to all federal, state and local government web resources and services.